Date String (YYYY-MM-DD hh:mm:ss) UTC,Instrument flags,Ambient pressure (hPa),Sample flow (lpm),Bypass flow (lpm),Sample temperature (°C),Ambient temperature (°C),ASC tube jacket temperature (°C),LED temperature (°C),Box temperature (°C),Sample RH (%),Span deviation,Mass concentration (μg/m³),Mass concentration (μg/m³),Mass concentration (μg/m³)
DateTimeUTC,F1_M11,P_M11,Q1_M11,Q2_M11,T1_M11,T2_M11,T3_M11,T4_M11,T5_M11,U1_M11,ZSPAN_M11,X2_M11,X0_M11,X1_M11
2023-02-01 10:00:00,,0824.5,5.04,0.00,22.2,20.4,00.0,31.2,23.8,07.1,0002.4,0009.86,0016.69,0008.97
2023-02-01 10:01:00,,0824.4,5.01,0.00,22.2,21.0,00.0,31.1,23.9,07.1,0002.4,0009.44,0016.30,0008.58
2023-02-01 10:02:00,,0824.4,4.99,0.00,22.3,22.1,00.0,31.1,24.2,07.1,0002.0,0008.91,0015.61,0008.10
2023-02-01 10:03:00,,0824.4,4.98,0.00,22.4,23.0,00.0,31.1,24.5,07.0,0001.7,0008.37,0015.26,0007.60
2023-02-01 10:04:00,,0824.4,5.00,0.00,22.5,22.8,00.0,31.2,24.5,06.9,0000.9,0007.96,0014.75,0007.20
2023-02-01 10:05:00,,0824.4,5.02,0.00,22.5,22.3,00.0,31.2,24.4,06.7,0000.5,0007.83,0015.16,0007.07
2023-02-01 10:06:00,,0824.4,5.00,0.00,22.5,21.8,00.0,31.2,24.3,06.8,0001.3,0007.73,0015.20,0006.97
2023-02-01 10:07:00,,0824.4,5.00,0.00,22.5,21.5,00.0,31.2,24.2,06.9,0000.5,0007.54,0015.62,0006.80
2023-02-01 10:08:00,,0824.3,4.99,0.00,22.4,21.3,00.0,31.3,24.2,06.9,0000.0,0007.15,0014.48,0006.44
2023-02-01 10:09:00,,0824.4,5.03,0.00,22.4,21.1,00.0,31.3,24.1,06.8,0000.0,0006.61,0013.90,0005.93
2023-02-01 10:10:00,,0824.5,4.94,0.00,22.4,20.9,00.0,31.3,24.1,06.8,0000.0,0006.08,0013.09,0005.46
2023-02-01 10:11:00,,0824.4,5.06,0.00,22.4,20.8,00.0,31.3,24.0,06.8,0000.0,0005.91,0012.49,0005.27
2023-02-01 10:12:00,,0824.5,4.95,0.00,22.3,20.7,00.0,31.3,24.0,06.8,0000.0,0005.98,0013.00,0005.28
2023-02-01 10:13:00,,0824.4,5.06,0.00,22.3,20.6,00.0,31.2,24.0,06.8,0000.0,0006.21,0013.58,0005.49
2023-02-01 10:14:00,,0824.5,4.97,0.00,22.3,20.6,00.0,31.2,24.0,06.9,-000.4,0006.54,0014.00,0005.80
2023-02-01 10:15:00,,0824.6,5.03,0.00,22.2,20.6,00.0,31.2,23.9,06.9,-000.8,0006.81,0014.38,0006.07
2023-02-01 10:16:00,,0824.6,4.97,0.00,22.3,21.1,00.0,31.2,24.1,07.0,-000.8,0006.71,0013.62,0005.99
2023-02-01 10:17:00,,0824.4,5.00,0.00,22.4,22.2,00.0,31.2,24.3,07.0,-000.6,0006.54,0013.03,0005.85
2023-02-01 10:18:00,,0824.4,4.99,0.00,22.5,23.0,00.0,31.2,24.6,07.0,-000.8,0006.39,0012.44,0005.70
2023-02-01 10:19:00,,0824.4,5.01,0.00,22.6,22.7,00.0,31.2,24.6,06.9,-000.3,0006.49,0013.19,0005.79
2023-02-01 10:20:00,,0824.4,5.02,0.00,22.6,22.3,00.0,31.3,24.5,07.0,-000.0,0006.73,0013.26,0006.04
2023-02-01 10:21:00,,0824.4,4.98,0.00,22.6,21.9,00.0,31.3,24.3,07.0,-000.6,0007.07,0013.77,0006.36
2023-02-01 10:22:00,,0824.6,5.01,0.00,22.5,21.6,00.0,31.3,24.3,06.9,-000.9,0007.45,0014.31,0006.74
2023-02-01 10:23:00,,0824.4,5.01,0.00,22.5,21.3,00.0,31.3,24.2,06.8,-001.3,0007.77,0014.21,0007.07
2023-02-01 10:24:00,,0824.4,5.00,0.00,22.5,21.1,00.0,31.3,24.1,07.0,-001.2,0007.89,0014.11,0007.17
2023-02-01 10:25:00,,0824.4,5.02,0.00,22.4,20.9,00.0,31.3,24.1,07.0,-001.0,0007.94,0013.91,0007.21
2023-02-01 10:26:00,,0824.5,5.01,0.00,22.4,20.7,00.0,31.3,24.0,07.0,-000.8,0008.01,0014.19,0007.28
2023-02-01 10:27:00,,0824.5,5.00,0.00,22.4,20.7,00.0,31.3,24.0,07.0,-000.3,0008.10,0014.33,0007.37
2023-02-01 10:28:00,,0824.5,4.99,0.00,22.3,20.6,00.0,31.3,24.0,06.9,-000.0,0008.19,0014.50,0007.42
2023-02-01 10:29:00,,0824.4,5.02,0.00,22.3,20.6,00.0,31.3,24.0,07.0,-001.0,0008.26,0014.27,0007.50
2023-02-01 10:30:00,,0824.4,5.01,0.00,22.3,20.8,00.0,31.2,24.0,07.1,-001.5,0008.18,0013.35,0007.46
2023-02-01 10:31:00,,0824.6,5.03,0.00,22.4,21.8,00.0,31.2,24.2,07.1,-001.0,0008.06,0013.26,0007.34
2023-02-01 10:32:00,,0824.5,4.99,0.00,22.5,22.7,00.0,31.2,24.5,07.0,0000.0,0007.88,0013.13,0007.18
2023-02-01 10:33:00,,0824.4,4.99,0.00,22.6,22.8,00.0,31.2,24.6,07.0,0000.0,0007.76,0012.92,0007.06
2023-02-01 10:34:00,,0824.4,4.98,0.00,22.6,22.3,00.0,31.3,24.5,07.0,0000.0,0007.54,0012.63,0006.87
2023-02-01 10:35:00,,0824.4,4.99,0.00,22.6,21.9,00.0,31.3,24.4,06.9,0000.0,0007.25,0012.38,0006.59
2023-02-01 10:36:00,,0824.3,5.00,0.00,22.5,21.6,00.0,31.3,24.3,06.8,0000.0,0006.88,0011.73,0006.28
2023-02-01 10:37:00,,0824.4,5.01,0.00,22.5,21.3,00.0,31.3,24.2,06.8,0000.0,0006.61,0010.95,0006.01
2023-02-01 10:38:00,,0824.5,5.02,0.00,22.5,21.1,00.0,31.3,24.2,06.8,0000.0,0006.33,0010.56,0005.76
2023-02-01 10:39:00,,0824.5,5.06,0.00,22.5,20.9,00.0,31.3,24.2,06.9,0000.0,0006.14,0010.21,0005.62
2023-02-01 10:40:00,,0824.4,5.03,0.00,22.4,20.8,00.0,31.3,24.1,06.9,0000.0,0005.95,0009.99,0005.45
2023-02-01 10:41:00,,0824.4,4.99,0.00,22.4,20.7,00.0,31.3,24.1,06.9,0000.0,0005.78,0009.81,0005.30
2023-02-01 10:42:00,,0824.4,5.03,0.00,22.4,20.7,00.0,31.3,24.0,06.8,0000.0,0005.63,0009.63,0005.18
2023-02-01 10:43:00,,0824.7,4.99,0.00,22.3,20.6,00.0,31.3,24.0,06.8,0000.0,0005.48,0009.25,0005.04
2023-02-01 10:44:00,,0824.5,4.98,0.00,22.3,20.9,00.0,31.3,24.1,06.8,0000.0,0005.29,0008.98,0004.87
2023-02-01 10:45:00,,0824.5,5.00,0.00,22.4,22.0,00.0,31.2,24.3,06.8,0000.0,0005.23,0008.99,0004.80
2023-02-01 10:46:00,,0824.5,5.02,0.00,22.6,22.9,00.0,31.3,24.6,06.8,0000.0,0005.27,0008.88,0004.85
2023-02-01 10:47:00,,0824.5,4.99,0.00,22.6,22.9,00.0,31.3,24.6,06.7,0000.0,0005.33,0009.02,0004.91
2023-02-01 10:48:00,,0824.5,4.99,0.00,22.7,22.4,00.0,31.3,24.5,06.7,0000.0,0005.31,0009.61,0004.88
2023-02-01 10:49:00,,0824.4,5.01,0.00,22.6,22.0,00.0,31.4,24.4,06.7,0000.0,0005.30,0009.81,0004.85
2023-02-01 10:50:00,,0824.5,4.98,0.00,22.6,21.6,00.0,31.4,24.4,06.7,0000.0,0005.22,0009.79,0004.75
2023-02-01 10:51:00,,0824.4,5.00,0.00,22.6,21.3,00.0,31.4,24.3,06.7,0000.0,0005.18,0009.98,0004.69
2023-02-01 10:52:00,,0824.4,5.00,0.00,22.6,21.1,00.0,31.4,24.2,06.7,0000.0,0005.16,0009.99,0004.65
2023-02-01 10:53:00,,0824.5,4.99,0.00,22.5,21.0,00.0,31.4,24.2,06.8,0000.0,0005.13,0009.90,0004.61
2023-02-01 10:54:00,,0824.5,5.04,0.00,22.5,20.8,00.0,31.4,24.1,06.8,0000.0,0005.12,0009.91,0004.59
2023-02-01 10:55:00,,0824.5,5.02,0.00,22.4,20.3,00.0,31.4,23.9,06.9,0000.0,0005.23,0010.04,0004.68
2023-02-01 10:56:00,,0824.5,4.98,0.00,22.3,20.0,00.0,31.3,23.8,07.0,0000.0,0005.38,0010.13,0004.83
2023-02-01 10:57:00,,0824.4,5.03,0.00,22.3,20.5,00.0,31.3,23.9,07.0,-000.3,0005.54,0010.33,0004.98
2023-02-01 10:58:00,,0824.4,5.00,0.00,22.4,21.8,00.0,31.2,24.2,07.1,-000.8,0005.77,0010.59,0005.16
2023-02-01 10:59:00,,0824.4,4.98,0.00,22.5,22.7,00.0,31.2,24.4,07.0,-001.9,0005.92,0010.78,0005.31
